Voltar ao catálogo

SL-8 DEB

AtivoLEO
NORAD 23265·DEBRIS·🇷🇺 Russia

Lançado Feb 12, 1991 de Plesetsk Cosmodrome

Loading…

Próximas Passagens (próximas 24 horas)

TLE

ObsoletoSource: Space-Track

Época: Aug 30, 2026, 21:33 UTC

1 23265U 91009CW  26242.89856926  .00000291  00000-0  24906-2 0  9991
2 23265  73.9955 203.8801 0161180  11.5992  17.6045 12.30132360589077

Acompanhe SL-8 DEB em tempo real com AllMySat

Download on the App Store